Location: Hattingen
(47.9224°N, 8.7851°E)
Time: 16:36:53
(UTC+00:00)

Daily predictions for brighter satellites

Satellite Brightness Start Highest point End
(mag) Time Altitude Azimuth Time Altitude Azimuth Time Altitude Azimuth
SL-08 ROCKET BODY 4.5 19:56:57 10° S 20:02:49 66° E 20:08:49 10° NNE
SPOT 3 Rocket 4.3 19:58:09 10° S 20:03:15 56° W 20:08:25 10° NNW
Cosmos 2237 4.3 19:58:51 10° S 20:04:28 60° ESE 20:10:07 10° NE
Cosmos 1455 2.2 20:08:04 10° N 20:11:56 81° E 20:15:47 10° SSE
Cosmos 1825 Rocket 3.9 20:12:01 10° SSE 20:16:16 48° E 20:20:35 10° NNE
ATLAS CENTAUR R/B 2.5 20:15:10 10° NNW 20:18:28 29° NE 20:21:41 10° ESE
Cosmos 1703 3.4 20:17:03 10° S 20:20:50 56° E 20:24:39 10° NNE
COSMOS 2428 3.7 20:17:12 10° SSE 20:21:50 27° ESE 20:26:29 10° NE
Cosmos 1812 Rocket 4.1 20:17:52 10° NNW 20:22:09 59° W 20:26:24 10° S
Cosmos 1844 3.8 20:18:03 10° NNW 20:23:53 77° ENE 20:29:32 10° SSE
Cosmos 2322 4.0 20:20:08 10° S 20:25:33 46° ESE 20:31:00 10° NE
Cosmos 1602 Rocket 4.5 20:25:24 10° SSW 20:29:42 51° WNW 20:34:04 10° N
Cosmos 2263 Rocket 4.4 20:27:55 10° WNW 20:31:41 19° W 20:35:27 10° SW
Cosmos 783 Rocket 4.5 20:26:30 10° SSW 20:31:43 70° ESE 20:36:55 10° NNE
Cosmos 1709 Rocket 4.1 20:26:13 10° S 20:32:24 63° E 20:38:41 10° NNE
Nadezhda 1 Rocket 4.4 20:26:23 10° NNW 20:32:45 69° W 20:39:04 10° S
NOSS 3-3 (A) 4.5 20:28:48 10° S 20:34:02 36° ESE 20:39:49 10° NE
NOSS 3-3 (C) 4.5 20:28:55 10° S 20:34:09 35° ESE 20:39:56 10° NE
MetOp-B 4.5 20:29:05 10° S 20:34:24 66° WSW 20:39:45 10° NNW
Atlas Centaur 2 4.0 20:31:46 10° SSW 20:35:26 16° S 20:38:46 12° SE
Terra 2.6 20:31:40 11° SE 20:35:48 38° ENE 20:40:12 10° N
Cosmos 2237 Rocket 4.0 20:33:12 10° SE 20:35:50 14° E 20:38:36 10° ENE
CARTOSAT-1 3.8 20:32:57 12° SSE 20:36:53 55° ENE 20:41:07 10° N
Cosmos 2333 4.3 20:31:51 10° S 20:37:19 55° ESE 20:42:52 10° NE
Cosmos 2219 Rocket 2.7 20:32:38 10° S 20:37:46 39° ESE 20:42:55 10° NE
Cosmos 2360 Rocket 2.3 20:33:56 10° SSW 20:39:35 81° WNW 20:45:18 10° NNE
IGS 5A 3.7 20:35:56 10° S 20:40:04 72° WSW 20:44:15 10° NNW
Cosmos 2333 Rocket 2.5 20:42:03 10° S 20:47:30 49° ESE 20:53:01 10° NE
ATLAS 2AS CENTAUR R/B 3.9 20:43:51 10° NW 20:51:07 41° NNE 20:57:50 10° ESE
Cosmos 1315 Rocket 3.3 20:47:13 10° N 20:51:13 49° ENE 20:54:13 17° SE
Resurs 01 Rocket 3.6 20:48:26 10° SSW 20:52:05 25° W 20:55:45 10° NW
Cosmos-2242 3.5 20:50:25 10° NNW 20:54:42 59° W 20:58:59 10° S
Cosmos 1818 3.9 20:49:32 10° SW 20:54:57 72° NW 21:00:26 10° NE
Cosmos 773 Rocket 4.0 20:52:16 10° SSW 20:57:33 77° ESE 21:02:52 10° NNE
SL-16 R/B 4.2 20:53:51 10° WSW 20:58:52 32° NW 21:03:56 10° NNE
Cosmos 2221 3.4 20:55:35 10° N 20:59:40 36° ENE 21:02:29 17° SE
ERS-1 Rocket 3.0 20:56:51 13° SSE 21:01:19 84° WSW 21:06:25 10° NNW
GEOS 3 Rocket 3.8 20:57:55 10° NE 21:03:21 86° NW 21:08:45 10° SW
USA 215 3.3 21:00:13 10° ENE 21:06:43 61° SE 21:13:10 10° SW
Cosmos 1892 4.2 21:07:02 18° ESE 21:08:29 22° E 21:11:28 10° NE
Cosmos 2278 Rocket 2.8 21:03:17 10° NNW 21:08:48 49° NE 21:13:09 16° SE
ATLAS 5 CENTAUR R/B 2.3 21:07:32 10° SW 21:11:41 58° NW 21:16:23 10° NE
Meteor 1-11 4.3 21:06:29 10° SSW 21:12:07 86° W 21:17:51 10° N
Cosmos 1844 Rocket 3.7 21:08:20 10° NW 21:13:28 39° WSW 21:18:16 11° S
Cosmos 1400 Rocket 4.2 21:10:22 10° NNW 21:13:59 33° W 21:17:32 10° SSW
Gblst 52 Del rocket 4.3 21:09:06 10° WNW 21:14:47 87° SSW 21:20:33 13° ESE
SPOT 5 3.1 21:13:56 15° S 21:18:04 69° WSW 21:22:53 10° NNW
SL-16 R/B 4.2 21:18:56 10° ESE 21:20:15 11° E 21:21:53 10° ENE
Lacrosse 5 rocket 3.8 21:17:12 10° WNW 21:20:34 23° N 21:23:47 10° NE
USA 81 4.2 21:19:52 11° S 21:25:00 75° W 21:30:19 10° N
Cosmos 2058 3.7 21:25:00 23° SE 21:26:53 36° E 21:30:42 10° NNE
BREEZE M DEB (TANK) 3.1 21:25:53 10° W 21:27:39 22° SW 21:27:39 22° SW
Cosmos 2181 Rocket 4.3 21:22:37 10° NNW 21:28:55 66° W 21:34:15 14° S
Cosmos 1408 4.0 21:29:06 20° ESE 21:29:57 22° E 21:32:47 10° NE
In-Cosmos 22 Rocket 4.3 21:29:55 21° SSE 21:33:13 52° E 21:38:23 10° NNE
Cosmos 2074 Rocket 4.0 21:29:16 17° S 21:34:11 73° E 21:40:23 10° NNE
TSX-5 3.8 21:32:04 10° NNW 21:35:31 64° ENE 21:37:36 26° SE
Cosmos 1076 Rocket 4.0 21:36:08 26° SSE 21:38:04 43° E 21:42:08 10° NNE
Cosmos 1680 Rocket 4.1 21:35:42 23° SSE 21:38:26 40° ESE 21:43:23 10° NE
USA 267 3.3 21:34:04 15° ESE 21:39:44 87° NNE 21:46:20 10° NW
Cosmos 2084 3.9 21:41:41 10° NW 21:46:02 52° SW 21:48:05 28° S
Cosmos 1842 Rocket 3.8 21:42:12 10° NNW 21:46:31 64° W 21:49:02 24° S
JB-3 4.1 21:44:02 10° NNE 21:47:54 86° ESE 21:49:57 27° SSW
Cosmos 2151 4.3 21:47:18 22° ESE 21:48:37 26° E 21:52:10 10° NNE
MTI 3.8 21:48:47 10° N 21:51:53 71° WNW 21:53:10 31° SSW
Cosmos 923 Rocket 4.0 21:52:19 21° S 21:55:52 72° ESE 22:01:10 10° NNE
Cosmos 2327 Rocket 4.5 21:52:14 22° S 21:56:21 74° E 22:02:29 10° NNE
ATLAS CENTAUR R/B 2.1 21:54:02 10° NW 21:57:21 32° WSW 21:58:26 27° SSW
Cosmos 1825 3.1 21:58:09 29° ESE 21:59:00 33° E 22:02:27 10° NNE
ALOS 2 3.9 21:58:03 20° ESE 22:00:14 31° ENE 22:04:06 10° N
Cosmos 2369 Rocket 4.4 21:56:52 10° N 22:00:41 18° NE 22:04:30 10° E
Cosmos 1980 3.7 21:56:55 21° S 22:00:43 66° ESE 22:06:19 10° NNE
Cosmos 967 Rocket 4.5 21:56:31 10° SSW 22:02:59 82° ESE 22:09:29 10° NE
Cosmos 44 4.4 22:05:14 22° ESE 22:05:14 22° ESE 22:08:35 10° ENE
COSMOS 2428 3.4 22:00:11 10° SW 22:05:44 55° WNW 22:11:21 10° NNE
Cosmos 1869 4.1 22:03:39 10° NNW 22:07:26 43° W 22:09:22 24° SSW
GP-B 4.3 22:05:59 10° NNE 22:09:53 29° E 22:11:23 24° ESE
Cosmos 1295 Rocket 4.5 22:06:30 26° S 22:10:05 68° E 22:16:09 10° NNE
NOSS 0 Rocket 3.9 22:07:32 13° SSW 22:13:05 89° WNW 22:19:19 10° NNE
Terra 3.3 22:10:33 15° SSW 22:13:37 29° W 22:17:46 10° NW
Cosmos 1624 Rocket 4.1 22:09:04 10° NNW 22:14:19 68° ENE 22:16:57 29° SE
NOSS 3-4 (A) 3.8 22:07:45 10° NW 22:14:43 89° SW 22:19:47 24° SE
NOSS 3-4 (C) 3.8 22:07:51 10° NW 22:14:50 89° SW 22:19:55 23° SE
Cosmos 2237 Rocket 2.1 22:14:58 20° SSW 22:18:58 83° ESE 22:24:43 10° NNE
Genesis I 3.2 22:18:36 42° S 22:19:39 60° SE 22:23:30 10° NE
Cosmos 2344 3.6 22:16:02 18° SSW 22:21:38 60° ESE 22:29:27 10° NE
Cosmos 2219 Rocket 3.5 22:16:29 10° WSW 22:21:42 39° NW 22:26:59 10° NNE
Elektron 1 4.3 22:21:21 27° SW 22:23:05 86° SE 22:28:34 10° NE
Atlas Centaur 2 4.4 22:20:08 10° SW 22:21:21 12° SSW 22:21:21 12° SSW
DELTA 2 R/B (1) 4.1 22:24:49 10° SW 22:29:46 33° S 22:30:03 33° SSE
Thor Agena Rocket 3.5 22:25:26 10° NNE 22:30:35 87° WNW 22:33:18 28° SSW
Cosmos 2333 Rocket 3.8 22:26:52 10° WSW 22:31:59 33° NW 22:37:10 10° NNE
Cosmos 2221 4.3 22:33:32 10° NW 22:37:02 24° W 22:39:20 16° SW
Iridium 2 4.2 22:37:35 10° NNW 22:41:18 50° W 22:42:26 36° SW
BREEZE-M DEB (TANK) 1.2 22:37:49 10° WNW 22:41:22 78° SW 22:41:22 78° SW
Cosmos 1371 Rocket 4.1 22:36:49 10° NNW 22:42:03 66° WSW 22:44:15 35° S
ATLAS 2AS CENTAUR R/B 2.8 22:35:07 10° NW 22:42:39 69° SW 22:46:25 29° SSE
EO 1 Del DPAF 3.5 22:39:57 10° N 22:43:40 62° WNW 22:44:59 37° SW
Cosmos 1892 4.3 22:41:59 18° WSW 22:44:02 29° WNW 22:47:25 10° N
MOS 1-B Rocket 4.4 22:37:40 10° NNE 22:45:31 83° WNW 22:49:57 24° SSW
Cosmos 1766 Rocket 3.6 22:44:24 42° SSE 22:45:42 65° E 22:50:04 10° NNE
Gbstr 26 Del rocket 4.4 22:49:28 20° ESE 22:49:28 20° ESE 22:51:21 10° E
Okean 3 Rocket 3.5 22:47:02 42° S 22:48:31 80° E 22:52:58 10° NNE
Cosmos 1328 Rocket 3.7 22:44:47 10° N 22:49:05 63° ENE 22:50:25 40° SE
Aureole 2 Rocket 1.9 22:46:17 10° NNW 22:48:59 80° NNW 22:48:59 80° NNW
USA 215 3.9 22:43:18 10° NE 22:49:44 59° NNW 22:56:08 10° W
Cosmos 1606 2.6 22:47:31 10° N 22:51:26 85° E 22:52:19 52° SSE
Cosmos 2112 Rocket 4.4 22:48:24 21° SW 22:52:00 62° WNW 22:57:20 10° NNE
Cosmos 2278 Rocket 3.4 22:47:47 10° NW 22:52:39 30° WSW 22:54:59 22° SW
Cosmos 2218 Rocket 4.1 22:50:54 31° SSE 22:54:00 66° E 23:00:15 10° NNE
Cosmos 2297 3.7 22:48:40 10° NNW 22:54:27 89° ENE 22:57:11 33° SSE
Cosmos 1420 Rocket 4.0 22:52:59 10° NNW 22:58:18 83° ENE 23:00:36 35° SSE
Cosmos 2366 rocket 4.1 22:56:35 32° SSE 22:59:40 69° E 23:06:00 10° NNE
Lacrosse 5 rocket 3.0 22:57:02 10° NW 23:00:41 31° NNE 23:04:09 10° E
Cosmos 1943 Rocket 2.8 22:55:30 10° NNW 23:01:05 53° ENE 23:04:40 22° SE
Cosmos 1633 3.7 23:01:11 29° ESE 23:01:32 30° E 23:04:44 10° NNE
SL-16 R/B 2.2 23:00:46 34° S 23:03:18 71° ESE 23:08:59 10° NNE
Cosmos 1408 4.3 23:03:24 20° WSW 23:04:52 26° WNW 23:07:55 10° NNW
Cosmos 2056 Rocket 4.0 23:00:44 10° NNW 23:05:56 49° WSW 23:07:58 33° SSW
Cosmos 1959 Rocket 4.4 23:06:20 33° S 23:09:17 82° E 23:15:31 10° N
YAOGAN 11 4.4 23:09:10 36° SE 23:10:43 60° ENE 23:15:06 10° N
Cosmos 1743 Rocket 4.3 23:12:36 33° SE 23:13:40 39° E 23:17:44 10° NNE
Cosmos 2341 Rocket 4.3 23:11:46 25° SSW 23:15:23 59° WNW 23:21:33 10° N
Cosmos 332 Rocket 3.7 23:14:50 10° NNW 23:19:41 83° ENE 23:21:28 39° SSE
USA 267 4.0 23:21:24 28° SSW 23:23:13 32° SW 23:29:00 10° WNW
Meteor 2-3 Rocket 3.7 23:21:02 36° S 23:23:28 84° E 23:29:13 10° NNE
Cosmos 2151 4.3 23:23:52 22° WSW 23:25:47 32° WNW 23:29:40 10° N
Helios 1A 2.9 23:24:53 49° S 23:25:56 79° WSW 23:30:08 10° NNW
Cosmos 405 3.1 23:25:05 10° N 23:28:37 65° ENE 23:29:08 55° SE
Meteor 1-26 Rocket 4.4 23:26:42 10° NNW 23:32:42 74° W 23:35:20 35° S
Cosmos 1452 Rocket 3.5 23:27:49 10° NNW 23:33:05 76° WSW 23:35:06 38° S
CZ-4C R/B 3.4 23:27:13 10° NW 23:34:08 60° NE 23:42:11 10° ESE
SL-8 Rocket 4.4 23:30:59 26° SW 23:34:22 56° WNW 23:40:26 10° N
Cosmos 1825 4.3 23:32:56 15° WSW 23:34:37 20° WNW 23:37:29 10° NNW
COSMOS 2455 2.8 23:29:01 10° NW 23:35:06 88° WSW 23:38:24 29° SSE
Cosmos 1340 3.0 23:34:23 45° SW 23:35:11 57° WNW 23:38:55 10° N
PSLV R/B 4.0 23:31:27 10° NNE 23:35:32 46° E 23:36:34 38° SE
ALOS 2 3.7 23:35:27 27° WSW 23:36:32 31° W 23:40:27 10° NNW
Cosmos 1408 Rocket 3.8 23:35:56 40° SW 23:37:19 63° WNW 23:41:43 10° N
Cosmos 1933 4.1 23:33:40 10° NNW 23:37:25 39° W 23:38:13 35° WSW
SL-16 R/B 4.3 23:33:16 10° ESE 23:38:18 27° ENE 23:43:21 10° N
Cosmos 1603 4.4 23:36:25 30° SSE 23:38:22 40° ESE 23:43:40 10° NE
Cosmos 1151 Rocket 3.9 23:34:57 10° NNW 23:38:58 37° W 23:40:03 32° SW
Cosmos 1727 Rocket 4.1 23:38:55 10° NNW 23:45:07 70° W 23:48:04 33° S
APEX 3.7 23:42:34 10° NW 23:44:21 32° WNW 23:44:21 32° WNW
Cosmos 2369 Rocket 2.2 23:40:02 10° NNW 23:45:40 78° ENE 23:48:49 27° SE
Resurs 1-4 Rocket 4.2 23:42:34 10° NE 23:45:46 16° E 23:48:44 11° ESE
Cosmos 44 3.7 23:43:38 24° WSW 23:46:02 52° NW 23:50:25 10° NNE
Cosmos 1500 Rocket 3.5 23:44:49 46° S 23:46:06 81° E 23:50:30 10° N
GP-B 4.4 23:43:16 10° NNW 23:47:10 30° WNW 23:48:50 23° WSW
SL-4 R/B 3.7 23:48:59 10° NW 23:48:59 10° NW 23:49:03 10° NW
ISS -1.2 23:51:00 12° E 23:51:00 12° E 23:51:31 10° E
Cosmos 371 Rocket 4.0 23:44:41 10° NW 23:49:13 40° WSW 23:50:25 34° SW
SeaSat 1 4.1 23:46:14 10° ENE 23:49:54 21° ESE 23:51:20 18° SE
Helios 1B rocket 2.6 23:50:15 10° NNE 23:54:21 60° ESE 23:55:23 44° SSE
CREW DRAGON DEMO-1 DEB 3.7 23:54:49 21° W 23:56:34 49° NNW 23:59:34 10° ENE
